Tracking 27405 objects as of 1-Jun-2023
HD Live streaming from Space Station
objects crossing your sky now

STARLINK-5193

Track STARLINK-5193 now!
10-day predictions
STARLINK-5193 is classified as:


NORAD ID: 54095
Int'l Code: 2022-136AW
Perigee: 546.2 km
Apogee: 547.6 km
Inclination: 53.2 °
Period: 95.4 minutes
Semi major axis: 6917 km
RCS: Unknown
Launch date: October 20, 2022
Source: United States (US)
Launch site: AIR FORCE EASTERN TEST RANGE (AFETR)
Your satellite tracking list
Your tracking list is empty




NASA's NSSDC Master Catalog

Two Line Element Set (TLE):
1 54095U 22136AW  23151.84553294 -.00000165  00000-0  76917-5 0  9997
2 54095  53.2147 200.6268 0001070  84.9175 275.1940 15.08834618 34552
Source of the keplerian elements: AFSPC